User: anonymous   Login
Location: Unspecified
(0.0000°N, 0.0000°E)
Time: 16:32:10
(UTC+02:00)
Language:

SJ-6B - Orbit

View from above orbital plane
View from above orbital plane
View from above satellite
View from above satellite

Ground track
Ground track

The orbit data is extracted from the following two-line orbital elements,

1 28415U 04035C   18114.96451759 +.00000441 +00000-0 +33386-4 0  9999
2 28415 097.7125 150.1702 0053098 141.1923 219.3136 15.06466518745514
Epoch (UTC): 24 April 2018 23:08:54
Eccentricity: 0.0053098
inclination: 97.7125°
perigee height: 510 km
apogee height: 584 km
right ascension of ascending node: 150.1702°
argument of perigee: 141.1923°
revolutions per day: 15.06466518
mean anomaly at epoch: 219.3136°
orbit number at epoch: 74551

The dashed part of the orbit path shows where the satellite is in the earth's shadow,  

DLR